When you browse on this site, cookies collect data to enhance your experience and personalize the content and advertising you see.
Visit our Privacy Policy to learn more. By continuing to use the site, you agree to this use of cookies and data.
  • In Austria
  • List of Countries
  • For 7 days
  • Water Temperature
  • Weather Map
  • News
  • Weather Widgets
  • user-avatar
    Login

    Hourly Weather Santiago del Estero

    Today, 5 December, Thursday

    Time Temperature Precipitation Wind Pressure Humidity
    00:00 +18°C° 0 mm 2 mps 746 mmHg 75%
    01:00 +17°C° 0 mm 2 mps 746 mmHg 76%
    02:00 +17°C° 0 mm 2 mps 746 mmHg 78%
    03:00 +17°C° 0 mm 2 mps 746 mmHg 78%
    04:00 +16°C° 0 mm 2 mps 746 mmHg 78%
    05:00 +16°C° 0 mm 2 mps 745 mmHg 78%
    06:00 +18°C° 0 mm 2 mps 746 mmHg 69%
    07:00 +21°C° 0 mm 1 mps 746 mmHg 60%
    08:00 +24°C° 0 mm 1 mps 747 mmHg 52%
    09:00 +26°C° 0 mm 1 mps 746 mmHg 45%
    10:00 +27°C° 0 mm 1 mps 746 mmHg 39%
    11:00 +27°C° 0 mm 0 mps 745 mmHg 32%
    12:00 +30°C° 0 mm 1 mps 744 mmHg 29%
    13:00 +31°C° 0 mm 1 mps 744 mmHg 27%
    14:00 +32°C° 0 mm 1 mps 743 mmHg 24%
    15:00 +32°C° 0 mm 2 mps 742 mmHg 23%
    16:00 +32°C° 0 mm 2 mps 741 mmHg 23%
    17:00 +32°C° 0 mm 2 mps 740 mmHg 22%
    18:00 +30°C° 0 mm 2 mps 741 mmHg 25%
    19:00 +27°C° 0 mm 2 mps 741 mmHg 29%
    20:00 +25°C° 0 mm 2 mps 741 mmHg 32%
    21:00 +24°C° 0 mm 2 mps 741 mmHg 31%
    22:00 +24°C° 0 mm 2 mps 741 mmHg 31%
    23:00 +22°C° 0 mm 3 mps 741 mmHg 31%

    Tomorrow, 6 December, Friday

    Time Temperature Precipitation Wind Pressure Humidity
    00:00 +22°C° 0 mm 3 mps 741 mmHg 34%
    01:00 +21°C° 0 mm 2 mps 741 mmHg 38%
    02:00 +20°C° 0 mm 2 mps 740 mmHg 42%
    03:00 +20°C° 0 mm 2 mps 740 mmHg 44%
    04:00 +19°C° 0 mm 2 mps 740 mmHg 45%
    05:00 +19°C° 0 mm 2 mps 740 mmHg 47%
    06:00 +21°C° 0 mm 3 mps 741 mmHg 44%
    07:00 +23°C° 0 mm 4 mps 741 mmHg 42%
    08:00 +26°C° 0 mm 5 mps 742 mmHg 39%
    09:00 +28°C° 0 mm 5 mps 742 mmHg 37%
    10:00 +32°C° 0 mm 5 mps 742 mmHg 34%
    11:00 +34°C° 0 mm 5 mps 741 mmHg 31%
    12:00 +35°C° 0 mm 4 mps 741 mmHg 29%
    13:00 +36°C° 0 mm 4 mps 741 mmHg 26%
    14:00 +37°C° 0 mm 4 mps 740 mmHg 23%
    15:00 +37°C° 0 mm 4 mps 740 mmHg 22%
    16:00 +37°C° 0 mm 4 mps 739 mmHg 21%
    17:00 +37°C° 0 mm 3 mps 739 mmHg 21%
    18:00 +35°C° 0 mm 3 mps 739 mmHg 23%
    19:00 +31°C° 0 mm 3 mps 739 mmHg 26%
    20:00 +29°C° 0 mm 3 mps 740 mmHg 29%
    21:00 +28°C° 0 mm 4 mps 740 mmHg 29%
    22:00 +27°C° 0 mm 4 mps 740 mmHg 30%
    23:00 +26°C° 0 mm 4 mps 741 mmHg 30%

    Day after tomorrow, 7 December, Saturday

    Time Temperature Precipitation Wind Pressure Humidity
    00:00 +26°C° 0 mm 4 mps 741 mmHg 32%
    01:00 +25°C° 0 mm 3 mps 740 mmHg 33%
    02:00 +24°C° 0 mm 3 mps 740 mmHg 35%
    03:00 +24°C° 0 mm 3 mps 740 mmHg 36%
    04:00 +22°C° 0 mm 3 mps 740 mmHg 37%
    05:00 +22°C° 0 mm 3 mps 740 mmHg 38%
    06:00 +23°C° 0 mm 4 mps 740 mmHg 37%
    07:00 +26°C° 0 mm 4 mps 740 mmHg 36%
    08:00 +27°C° 0 mm 5 mps 741 mmHg 35%
    09:00 +28°C° 0 mm 5 mps 740 mmHg 33%
    10:00 +30°C° 0 mm 5 mps 740 mmHg 31%
    11:00 +32°C° 0 mm 5 mps 740 mmHg 29%
    12:00 +35°C° 0 mm 5 mps 739 mmHg 26%
    13:00 +37°C° 0 mm 5 mps 739 mmHg 24%
    14:00 +40°C° 0 mm 5 mps 738 mmHg 22%
    15:00 +40°C° 0 mm 6 mps 737 mmHg 22%
    16:00 +39°C° 0 mm 6 mps 737 mmHg 22%
    17:00 +39°C° 0 mm 6 mps 736 mmHg 22%
    18:00 +36°C° 0 mm 5 mps 736 mmHg 24%
    19:00 +35°C° 0 mm 4 mps 737 mmHg 27%
    20:00 +33°C° 0 mm 3 mps 737 mmHg 29%
    21:00 +30°C° 0 mm 3 mps 737 mmHg 34%
    22:00 +29°C° 0 mm 3 mps 737 mmHg 39%
    23:00 +28°C° 0 mm 2 mps 738 mmHg 45%

    8 December, Sunday

    Time Temperature Precipitation Wind Pressure Humidity
    00:00 +27°C° 0 mm 3 mps 738 mmHg 42%
    01:00 +27°C° 0 mm 3 mps 737 mmHg 39%
    02:00 +27°C° 0 mm 4 mps 737 mmHg 36%
    03:00 +26°C° 0.1 mm 3 mps 738 mmHg 39%
    04:00 +24°C° 0.1 mm 3 mps 738 mmHg 42%
    05:00 +22°C° 0.1 mm 3 mps 738 mmHg 44%
    06:00 +25°C° 0.2 mm 3 mps 738 mmHg 43%
    07:00 +27°C° 0.2 mm 4 mps 739 mmHg 41%
    08:00 +28°C° 0.2 mm 4 mps 739 mmHg 39%
    09:00 +30°C° 0.1 mm 4 mps 739 mmHg 35%
    10:00 +33°C° 0.1 mm 4 mps 740 mmHg 31%
    11:00 +35°C° 0.1 mm 3 mps 740 mmHg 27%
    12:00 +36°C° 0 mm 3 mps 739 mmHg 26%
    13:00 +37°C° 0 mm 3 mps 738 mmHg 25%
    14:00 +40°C° 0 mm 4 mps 738 mmHg 24%
    15:00 +38°C° 0 mm 3 mps 737 mmHg 24%
    16:00 +38°C° 0 mm 3 mps 737 mmHg 25%
    17:00 +38°C° 0 mm 2 mps 737 mmHg 25%
    18:00 +36°C° 0 mm 2 mps 737 mmHg 30%
    19:00 +32°C° 0 mm 1 mps 737 mmHg 35%
    20:00 +28°C° 0 mm 0 mps 737 mmHg 40%
    21:00 +29°C° 0 mm 1 mps 738 mmHg 40%
    22:00 +29°C° 0 mm 1 mps 738 mmHg 40%
    23:00 +28°C° 0 mm 2 mps 739 mmHg 40%

    9 December, Monday

    Time Temperature Precipitation Wind Pressure Humidity
    00:00 +27°C° 0 mm 2 mps 738 mmHg 41%
    01:00 +27°C° 0 mm 2 mps 738 mmHg 43%
    02:00 +26°C° 0 mm 2 mps 738 mmHg 44%
    03:00 +26°C° 0 mm 2 mps 738 mmHg 47%
    04:00 +25°C° 0 mm 2 mps 738 mmHg 50%
    05:00 +25°C° 0 mm 2 mps 738 mmHg 53%
    06:00 +27°C° 0 mm 2 mps 738 mmHg 46%
    07:00 +29°C° 0 mm 3 mps 739 mmHg 39%
    08:00 +33°C° 0 mm 3 mps 739 mmHg 32%
    09:00 +35°C° 0 mm 4 mps 739 mmHg 29%
    10:00 +37°C° 0 mm 4 mps 739 mmHg 26%
    11:00 +40°C° 0 mm 4 mps 739 mmHg 23%
    12:00 +41°C° 0 mm 4 mps 738 mmHg 22%
    13:00 +42°C° 0 mm 4 mps 737 mmHg 21%
    14:00 +43°C° 0 mm 4 mps 736 mmHg 20%
    15:00 +42°C° 0 mm 4 mps 736 mmHg 21%
    16:00 +42°C° 0 mm 5 mps 735 mmHg 21%
    17:00 +41°C° 0 mm 5 mps 735 mmHg 22%
    18:00 +38°C° 0 mm 4 mps 735 mmHg 26%
    19:00 +36°C° 0 mm 3 mps 735 mmHg 30%
    20:00 +34°C° 0 mm 3 mps 736 mmHg 34%
    21:00 +33°C° 0.2 mm 3 mps 736 mmHg 38%
    22:00 +31°C° 0.2 mm 3 mps 737 mmHg 42%
    23:00 +30°C° 0.2 mm 3 mps 737 mmHg 46%

    10 December, Tuesday

    Time Temperature Precipitation Wind Pressure Humidity
    00:00 +29°C° 0.2 mm 3 mps 737 mmHg 51%
    01:00 +28°C° 0.2 mm 2 mps 736 mmHg 55%
    02:00 +27°C° 0.2 mm 2 mps 736 mmHg 59%
    03:00 +27°C° 0 mm 2 mps 736 mmHg 61%
    04:00 +26°C° 0 mm 2 mps 736 mmHg 63%
    05:00 +26°C° 0 mm 2 mps 736 mmHg 64%
    06:00 +28°C° 0 mm 2 mps 737 mmHg 60%
    07:00 +30°C° 0 mm 2 mps 737 mmHg 55%
    08:00 +33°C° 0 mm 3 mps 738 mmHg 50%
    09:00 +35°C° 0 mm 3 mps 738 mmHg 44%
    10:00 +38°C° 0 mm 4 mps 738 mmHg 37%
    11:00 +41°C° 0 mm 5 mps 738 mmHg 31%
    12:00 +42°C° 0 mm 4 mps 738 mmHg 28%
    13:00 +43°C° 0 mm 4 mps 737 mmHg 26%
    14:00 +44°C° 0 mm 3 mps 736 mmHg 23%
    15:00 +41°C° 0.2 mm 4 mps 736 mmHg 29%
    16:00 +39°C° 0.2 mm 5 mps 736 mmHg 35%
    17:00 +36°C° 0.2 mm 5 mps 736 mmHg 41%
    18:00 +33°C° 1.7 mm 6 mps 736 mmHg 51%
    19:00 +29°C° 1.7 mm 6 mps 737 mmHg 61%
    20:00 +27°C° 1.7 mm 6 mps 738 mmHg 71%
    21:00 +26°C° 0.1 mm 5 mps 738 mmHg 74%
    22:00 +26°C° 0.1 mm 3 mps 739 mmHg 76%
    23:00 +26°C° 0.1 mm 2 mps 739 mmHg 79%
    Show more